Big Rapids, MI

8:56 PM EDT on October 22, 2019 (GMT -0400)
Roben-Hood

Weather History for KRQB - August, 2019

Change the Weather History Date:

Wednesday, August 14, 2019

  Actual Average Record
Temperature  
Mean Temperature 66 °F -  
Max Temperature 73 °F 79 °F 91 °F (1978)
Min Temperature 59 °F 55 °F 39 °F (2004)
Cooling Degree Days 1    
Growing Degree Days 16 (Base 50)    
Moisture  
Dew Point 55 °F    
Average Humidity 68    
Maximum Humidity 86    
Minimum Humidity 48    
Precipitation  
Precipitation 0.00 in - - ()
Sea Level Pressure  
Sea Level Pressure 29.98 in    
Wind  
Wind Speed 4 mph (East)    
Max Wind Speed 9 mph    
Max Gust Speed -    
Visibility 10 miles    
Events Rain    
Averages and records for this station are not official NWS values.
T = Trace of Precipitation, MM = Missing Value Source: NWS Daily Summary

Daily Weather History Graph

Daily Weather History Graph

Search for Another Location

Airport or City:

Astronomy

Aug. 14, 2019 Rise Set
Actual Time 6:45 AM EDT 8:47 PM EDT
Civil Twilight 6:13 AM EDT 9:18 PM EDT
Nautical Twilight 5:35 AM EDT 9:56 PM EDT
Astronomical Twilight 4:53 AM EDT 10:38 PM EDT
Moon 8:43 PM EDT (8/14) 5:38 AM EDT (8/14)
Length of Visible Light 15h 04m
Length of Day
14h 02m
Waxing Gibbous, 99% of the Moon is Illuminated
Aug 14
Waxing Gibbous
Aug 15
Full
Aug 23
Last Quarter
Aug 30
New
Sep 5
First Quarter

Hourly Weather History & Observations

Time (EDT) Temp. Dew Point Humidity Pressure Visibility Wind Dir Wind Speed Gust Speed Precip Events Conditions
12:15 AM 69.1 °F 52.2 °F 55% 29.94 in 10.0 mi East 6.9 mph - N/A   Overcast
12:39 AM 68.0 °F 51.6 °F 56% 29.94 in 10.0 mi East 4.6 mph - N/A   Mostly Cloudy
12:56 AM 67.3 °F 51.4 °F 57% 29.95 in 10.0 mi East 5.8 mph - N/A   Mostly Cloudy
1:15 AM 65.5 °F 53.2 °F 65% 29.95 in 10.0 mi ESE 4.6 mph - N/A   Overcast
1:16 AM 65.5 °F 53.2 °F 65% 29.95 in 10.0 mi ESE 4.6 mph - N/A   Overcast
1:35 AM 64.9 °F 52.0 °F 63% 29.95 in 10.0 mi SSW 6.9 mph - N/A   Mostly Cloudy
1:59 AM 64.2 °F 52.3 °F 65% 29.95 in 10.0 mi Calm Calm - N/A   Mostly Cloudy
2:17 AM 63.3 °F 52.7 °F 68% 29.95 in 10.0 mi Calm Calm - N/A   Mostly Cloudy
2:35 AM 61.3 °F 52.9 °F 74% 29.95 in 10.0 mi NNE 3.5 mph - N/A   Scattered Clouds
2:36 AM 61.5 °F 52.9 °F 73% 29.95 in 10.0 mi NNE 3.5 mph - N/A   Scattered Clouds
2:55 AM 63.0 °F 53.2 °F 71% 29.95 in 10.0 mi Calm Calm - N/A   Mostly Cloudy
2:56 AM 62.8 °F 53.4 °F 71% 29.95 in 10.0 mi Calm Calm - N/A   Mostly Cloudy
3:15 AM 61.7 °F 54.3 °F 77% 29.95 in 10.0 mi Calm Calm - N/A   Overcast
3:19 AM 61.7 °F 54.1 °F 76% 29.95 in 10.0 mi Calm Calm - N/A   Overcast
3:36 AM 61.3 °F 54.5 °F 78% 29.95 in 10.0 mi Calm Calm - N/A   Overcast
3:55 AM 59.7 °F 55.0 °F 84% 29.96 in 10.0 mi NW 4.6 mph - N/A   Mostly Cloudy
3:56 AM 59.7 °F 55.0 °F 84% 29.96 in 10.0 mi NW 4.6 mph - N/A   Mostly Cloudy
4:15 AM 61.7 °F 53.2 °F 74% 29.96 in 10.0 mi Calm Calm - N/A   Mostly Cloudy
4:16 AM 61.7 °F 53.2 °F 74% 29.96 in 10.0 mi Calm Calm - N/A   Mostly Cloudy
4:35 AM 60.8 °F 54.5 °F 80% 29.97 in 10.0 mi Calm Calm - N/A   Overcast
4:40 AM 60.8 °F 54.3 °F 79% 29.97 in 10.0 mi Calm Calm - N/A   Overcast
4:58 AM 61.2 °F 54.7 °F 79% 29.96 in 10.0 mi Calm Calm - N/A   Overcast
5:16 AM 61.0 °F 55.4 °F 82% 29.96 in 10.0 mi Calm Calm - N/A   Overcast
5:35 AM 60.3 °F 55.4 °F 84% 29.96 in 10.0 mi Calm Calm - N/A   Mostly Cloudy
5:36 AM 60.1 °F 55.4 °F 85% 29.96 in 10.0 mi Calm Calm - N/A   Mostly Cloudy
5:55 AM 60.8 °F 53.6 °F 77% 29.97 in 10.0 mi Calm Calm - N/A   Scattered Clouds
6:19 AM 59.4 °F 53.4 °F 81% 29.97 in 10.0 mi Calm Calm - N/A   Clear
6:36 AM 59.2 °F 53.6 °F 82% 29.97 in 10.0 mi Calm Calm - N/A   Clear
6:55 AM 59.5 °F 53.6 °F 81% 29.98 in 10.0 mi Calm Calm - N/A   Clear
6:56 AM 59.5 °F 53.6 °F 81% 29.98 in 10.0 mi Calm Calm - N/A   Clear
7:15 AM 60.1 °F 53.2 °F 78% 29.98 in 10.0 mi Calm Calm - N/A   Scattered Clouds
7:39 AM 61.0 °F 53.6 °F 77% 29.99 in 10.0 mi Calm Calm - N/A   Mostly Cloudy
7:57 AM 61.3 °F 53.6 °F 76% 29.99 in 10.0 mi Calm Calm - N/A   Overcast
8:15 AM 61.9 °F 53.4 °F 74% 30.00 in 10.0 mi Calm Calm - N/A   Overcast
8:16 AM 62.1 °F 53.4 °F 73% 30.00 in 10.0 mi Calm Calm - N/A   Overcast
8:35 AM 62.6 °F 53.4 °F 72% 30.00 in 10.0 mi SE 3.5 mph - N/A   Overcast
8:59 AM 63.7 °F 53.6 °F 70% 30.00 in 10.0 mi NNW 4.6 mph - N/A   Scattered Clouds
9:17 AM 64.6 °F 53.8 °F 68% 30.00 in 10.0 mi SSE 5.8 mph - N/A   Mostly Cloudy
9:35 AM 65.3 °F 53.2 °F 65% 29.99 in 10.0 mi East 8.1 mph - N/A   Mostly Cloudy
9:36 AM 65.3 °F 53.2 °F 65% 29.99 in 10.0 mi ENE 8.1 mph - N/A   Mostly Cloudy
9:55 AM 66.0 °F 53.8 °F 65% 29.99 in 10.0 mi ESE 6.9 mph - N/A   Mostly Cloudy
10:15 AM 66.7 °F 54.0 °F 63% 29.99 in 10.0 mi East 6.9 mph - N/A   Mostly Cloudy
10:20 AM 66.6 °F 54.1 °F 64% 30.00 in 10.0 mi East 4.6 mph - N/A   Mostly Cloudy
10:38 AM 67.1 °F 54.3 °F 63% 30.00 in 10.0 mi ENE 4.6 mph - N/A   Overcast
10:56 AM 67.6 °F 55.0 °F 64% 30.00 in 10.0 mi East 4.6 mph - N/A   Overcast
11:15 AM 67.5 °F 54.3 °F 63% 30.01 in 10.0 mi East 8.1 mph - N/A   Overcast
11:16 AM 67.5 °F 54.3 °F 63% 30.01 in 10.0 mi East 8.1 mph - N/A   Overcast
11:35 AM 68.0 °F 54.5 °F 62% 30.01 in 10.0 mi East 6.9 mph - N/A   Overcast
11:36 AM 68.0 °F 54.5 °F 62% 30.01 in 10.0 mi East 6.9 mph - N/A   Overcast
11:58 AM 69.1 °F 55.0 °F 61% 30.01 in 10.0 mi East 6.9 mph - N/A   Scattered Clouds
12:15 PM 69.8 °F 55.0 °F 59% 30.01 in 10.0 mi East 6.9 mph - N/A   Mostly Cloudy
12:35 PM 71.2 °F 55.9 °F 58% 30.00 in 10.0 mi ENE 6.9 mph - N/A   Mostly Cloudy
12:55 PM 71.4 °F 55.2 °F 57% 30.00 in 10.0 mi East 4.6 mph - N/A   Mostly Cloudy
1:18 PM 72.9 °F 54.0 °F 51% 30.00 in 10.0 mi ESE 6.9 mph - N/A   Mostly Cloudy
1:36 PM 72.1 °F 53.6 °F 52% 30.00 in 10.0 mi ESE 8.1 mph - N/A   Overcast
1:55 PM 72.7 °F 53.1 °F 50% 30.00 in 10.0 mi ESE 4.6 mph - N/A   Overcast
2:15 PM 72.7 °F 52.0 °F 48% 30.00 in 10.0 mi East 8.1 mph - N/A   Overcast
2:16 PM 72.7 °F 52.0 °F 48% 30.00 in 10.0 mi East 8.1 mph - N/A   Overcast
2:39 PM 73.4 °F 52.9 °F 49% 30.00 in 10.0 mi ENE 4.6 mph - N/A   Overcast
2:57 PM 73.2 °F 53.8 °F 50% 29.99 in 10.0 mi ENE 6.9 mph - N/A   Overcast
3:15 PM 72.5 °F 52.7 °F 50% 29.99 in 10.0 mi NE 5.8 mph - N/A   Overcast
3:35 PM 72.5 °F 54.1 °F 52% 29.99 in 10.0 mi East 6.9 mph - N/A   Overcast
3:36 PM 72.5 °F 54.3 °F 53% 29.99 in 10.0 mi East 6.9 mph - N/A   Overcast
3:55 PM 72.5 °F 54.9 °F 54% 30.00 in 10.0 mi East 6.9 mph - N/A   Overcast
4:18 PM 71.8 °F 54.5 °F 54% 29.99 in 10.0 mi ENE 4.6 mph - N/A   Overcast
4:36 PM 72.0 °F 55.4 °F 56% 29.99 in 10.0 mi East 5.8 mph - N/A   Overcast
4:55 PM 72.0 °F 55.4 °F 56% 30.00 in 10.0 mi East 3.5 mph - N/A   Overcast
4:56 PM 72.0 °F 55.4 °F 56% 30.00 in 10.0 mi East 4.6 mph - N/A   Overcast
5:15 PM 71.6 °F 56.5 °F 59% 29.99 in 10.0 mi East 5.8 mph - N/A   Overcast
5:39 PM 72.0 °F 56.7 °F 58% 29.99 in 10.0 mi ENE 3.5 mph - N/A   Overcast
5:56 PM 71.6 °F 56.3 °F 58% 29.99 in 10.0 mi East 4.6 mph - N/A   Overcast
6:15 PM 71.1 °F 56.3 °F 60% 29.99 in 10.0 mi East 4.6 mph - N/A   Overcast
6:16 PM 71.1 °F 56.5 °F 60% 29.99 in 10.0 mi East 4.6 mph - N/A   Overcast
6:35 PM 70.3 °F 57.9 °F 65% 29.99 in 10.0 mi ESE 4.6 mph - N/A   Overcast
6:36 PM 70.3 °F 57.7 °F 64% 29.99 in 10.0 mi ESE 4.6 mph - N/A   Overcast
6:55 PM 70.0 °F 58.1 °F 66% 29.98 in 10.0 mi East 4.6 mph - N/A   Overcast
7:00 PM 69.8 °F 58.1 °F 66% 29.98 in 10.0 mi East 3.5 mph - N/A   Overcast
7:18 PM 70.0 °F 58.1 °F 66% 29.98 in 10.0 mi Calm Calm - N/A   Overcast
7:36 PM 69.8 °F 58.5 °F 67% 29.98 in 10.0 mi SE 3.5 mph - N/A   Overcast
7:55 PM 69.3 °F 59.2 °F 70% 29.98 in 10.0 mi Calm Calm - N/A   Overcast
7:56 PM 69.3 °F 59.2 °F 70% 29.98 in 10.0 mi Calm Calm - N/A   Overcast
8:15 PM 68.0 °F 60.6 °F 77% 29.98 in 10.0 mi South 4.6 mph - N/A Rain Light Rain
8:39 PM 67.6 °F 61.7 °F 81% 29.98 in 10.0 mi Calm Calm - N/A Rain Light Rain
8:57 PM 67.3 °F 61.0 °F 80% 29.98 in 10.0 mi Calm Calm - N/A   Light Drizzle
9:15 PM 67.5 °F 59.9 °F 77% 29.98 in 10.0 mi East 4.6 mph - N/A   Overcast
9:16 PM 67.5 °F 59.9 °F 77% 29.98 in 10.0 mi East 4.6 mph - N/A   Overcast
9:35 PM 66.2 °F 60.1 °F 81% 29.99 in 10.0 mi East 3.5 mph - N/A   Overcast
9:58 PM 65.7 °F 61.3 °F 86% 30.00 in 10.0 mi Calm Calm - N/A   Overcast
10:16 PM 66.6 °F 58.6 °F 76% 30.00 in 10.0 mi East 4.6 mph - N/A   Overcast
10:35 PM 66.2 °F 59.0 °F 78% 30.00 in 10.0 mi South 9.2 mph - N/A   Overcast
10:36 PM 66.0 °F 59.0 °F 78% 30.00 in 10.0 mi South 8.1 mph - N/A   Overcast
10:55 PM 65.7 °F 59.2 °F 80% 30.01 in 10.0 mi SE 4.6 mph - N/A   Overcast
11:15 PM 65.5 °F 59.0 °F 80% 30.01 in 10.0 mi South 8.1 mph - N/A   Overcast
11:38 PM 64.4 °F 57.2 °F 77% 30.01 in 10.0 mi SSE 5.8 mph - N/A   Mostly Cloudy
11:56 PM 64.9 °F 56.3 °F 74% 30.02 in 10.0 mi East 6.9 mph - N/A   Overcast